When you browse on this site, cookies collect data to enhance your experience and personalize the content and advertising you see.
Visit our Privacy Policy to learn more. By continuing to use the site, you agree to this use of cookies and data.
  • In Portugal
  • List of Countries
  • For 7 days
  • Water Temperature
  • Weather Map
  • Weather Widgets
  • user-avatar
    Login

    Hourly Weather Stepanakert

    Today, 14 December, Saturday

    Time Temperature Precipitation Wind Pressure Humidity
    00:00 +3°C° 0 mm 0 mps 691 mmHg 86%
    01:00 +3°C° 0 mm 0 mps 691 mmHg 85%
    02:00 +3°C° 0 mm 0 mps 691 mmHg 84%
    03:00 +2°C° 0 mm 0 mps 691 mmHg 83%
    04:00 +3°C° 0 mm 0 mps 691 mmHg 81%
    05:00 +3°C° 0 mm 0 mps 692 mmHg 79%
    06:00 +4°C° 0 mm 1 mps 692 mmHg 78%
    07:00 +4°C° 0 mm 0 mps 692 mmHg 72%
    08:00 +5°C° 0 mm 0 mps 692 mmHg 67%
    09:00 +6°C° 0 mm 0 mps 693 mmHg 62%
    10:00 +7°C° 0 mm 0 mps 693 mmHg 59%
    11:00 +9°C° 0 mm 1 mps 693 mmHg 57%
    12:00 +10°C° 0 mm 1 mps 693 mmHg 55%
    13:00 +10°C° 0 mm 1 mps 692 mmHg 58%
    14:00 +10°C° 0 mm 1 mps 692 mmHg 60%
    15:00 +10°C° 0 mm 1 mps 692 mmHg 63%
    16:00 +9°C° 0 mm 1 mps 692 mmHg 67%
    17:00 +7°C° 0 mm 1 mps 692 mmHg 71%
    18:00 +6°C° 0 mm 1 mps 692 mmHg 75%
    19:00 +6°C° 0 mm 1 mps 692 mmHg 74%
    20:00 +6°C° 0 mm 1 mps 692 mmHg 72%
    21:00 +6°C° 0 mm 1 mps 693 mmHg 71%
    22:00 +6°C° 0 mm 1 mps 692 mmHg 69%
    23:00 +6°C° 0 mm 1 mps 692 mmHg 66%

    Tomorrow, 15 December, Sunday

    Time Temperature Precipitation Wind Pressure Humidity
    00:00 +6°C° 0 mm 1 mps 692 mmHg 64%
    01:00 +6°C° 0 mm 1 mps 692 mmHg 64%
    02:00 +6°C° 0 mm 1 mps 692 mmHg 63%
    03:00 +6°C° 0 mm 1 mps 692 mmHg 62%
    04:00 +6°C° 0 mm 1 mps 692 mmHg 61%
    05:00 +6°C° 0 mm 1 mps 692 mmHg 59%
    06:00 +6°C° 0 mm 1 mps 692 mmHg 57%
    07:00 +6°C° 0 mm 0 mps 692 mmHg 56%
    08:00 +7°C° 0 mm 0 mps 692 mmHg 55%
    09:00 +8°C° 0 mm 0 mps 693 mmHg 54%
    10:00 +9°C° 0 mm 0 mps 692 mmHg 53%
    11:00 +11°C° 0 mm 1 mps 692 mmHg 51%
    12:00 +12°C° 0 mm 1 mps 692 mmHg 50%
    13:00 +11°C° 0 mm 1 mps 692 mmHg 53%
    14:00 +11°C° 0 mm 1 mps 692 mmHg 56%
    15:00 +11°C° 0 mm 1 mps 692 mmHg 59%
    16:00 +9°C° 0 mm 0 mps 692 mmHg 63%
    17:00 +8°C° 0 mm 0 mps 692 mmHg 66%
    18:00 +7°C° 0 mm 0 mps 692 mmHg 69%
    19:00 +7°C° 0 mm 0 mps 692 mmHg 69%
    20:00 +8°C° 0 mm 0 mps 693 mmHg 68%
    21:00 +8°C° 0 mm 0 mps 693 mmHg 68%
    22:00 +7°C° 0 mm 0 mps 693 mmHg 68%
    23:00 +7°C° 0 mm 0 mps 693 mmHg 69%

    Day after tomorrow, 16 December, Monday

    Time Temperature Precipitation Wind Pressure Humidity
    00:00 +8°C° 0 mm 1 mps 693 mmHg 69%
    01:00 +8°C° 0 mm 1 mps 693 mmHg 71%
    02:00 +8°C° 0 mm 1 mps 693 mmHg 73%
    03:00 +8°C° 0 mm 1 mps 693 mmHg 75%
    04:00 +8°C° 0 mm 1 mps 694 mmHg 76%
    05:00 +7°C° 0 mm 0 mps 694 mmHg 76%
    06:00 +7°C° 0 mm 0 mps 694 mmHg 77%
    07:00 +7°C° 0.1 mm 0 mps 695 mmHg 78%
    08:00 +7°C° 0.1 mm 0 mps 695 mmHg 79%
    09:00 +8°C° 0.1 mm 0 mps 695 mmHg 80%
    10:00 +9°C° 0.1 mm 1 mps 695 mmHg 79%
    11:00 +9°C° 0.1 mm 1 mps 695 mmHg 78%
    12:00 +9°C° 0.1 mm 1 mps 695 mmHg 78%
    13:00 +9°C° 0 mm 1 mps 695 mmHg 78%
    14:00 +9°C° 0 mm 1 mps 695 mmHg 79%
    15:00 +9°C° 0 mm 1 mps 695 mmHg 79%
    16:00 +9°C° 0 mm 1 mps 695 mmHg 81%
    17:00 +8°C° 0 mm 1 mps 695 mmHg 83%
    18:00 +7°C° 0 mm 0 mps 696 mmHg 84%
    19:00 +7°C° 0.2 mm 0 mps 696 mmHg 85%
    20:00 +7°C° 0.2 mm 0 mps 696 mmHg 86%
    21:00 +7°C° 0.2 mm 0 mps 697 mmHg 87%
    22:00 +7°C° 0.3 mm 0 mps 697 mmHg 87%
    23:00 +6°C° 0.3 mm 0 mps 697 mmHg 88%

    17 December, Tuesday

    Time Temperature Precipitation Wind Pressure Humidity
    00:00 +6°C° 0.3 mm 0 mps 697 mmHg 89%
    01:00 +6°C° 0.3 mm 0 mps 698 mmHg 89%
    02:00 +7°C° 0.3 mm 1 mps 698 mmHg 90%
    03:00 +7°C° 0.3 mm 1 mps 698 mmHg 91%
    04:00 +6°C° 0 mm 1 mps 698 mmHg 91%
    05:00 +6°C° 0 mm 1 mps 698 mmHg 91%
    06:00 +5°C° 0 mm 0 mps 698 mmHg 90%
    07:00 +5°C° 0 mm 0 mps 698 mmHg 87%
    08:00 +7°C° 0 mm 1 mps 699 mmHg 84%
    09:00 +8°C° 0 mm 1 mps 699 mmHg 81%
    10:00 +8°C° 0 mm 1 mps 699 mmHg 81%
    11:00 +8°C° 0 mm 1 mps 699 mmHg 82%
    12:00 +8°C° 0 mm 1 mps 699 mmHg 82%
    13:00 +8°C° 0 mm 1 mps 699 mmHg 82%
    14:00 +8°C° 0 mm 1 mps 699 mmHg 81%
    15:00 +9°C° 0 mm 1 mps 698 mmHg 81%
    16:00 +8°C° 0 mm 1 mps 699 mmHg 84%
    17:00 +6°C° 0 mm 0 mps 699 mmHg 87%
    18:00 +5°C° 0 mm 0 mps 699 mmHg 89%
    19:00 +5°C° 0 mm 0 mps 700 mmHg 88%
    20:00 +5°C° 0 mm 0 mps 700 mmHg 87%
    21:00 +6°C° 0 mm 1 mps 700 mmHg 86%
    22:00 +6°C° 0 mm 1 mps 700 mmHg 85%
    23:00 +5°C° 0 mm 1 mps 700 mmHg 84%

    18 December, Wednesday

    Time Temperature Precipitation Wind Pressure Humidity
    00:00 +5°C° 0 mm 1 mps 700 mmHg 83%
    01:00 +5°C° 0 mm 1 mps 700 mmHg 82%
    02:00 +5°C° 0 mm 1 mps 700 mmHg 81%
    03:00 +5°C° 0 mm 1 mps 700 mmHg 81%
    04:00 +5°C° 0 mm 1 mps 700 mmHg 79%
    05:00 +5°C° 0 mm 1 mps 700 mmHg 78%
    06:00 +4°C° 0 mm 1 mps 700 mmHg 77%
    07:00 +5°C° 0 mm 1 mps 700 mmHg 73%
    08:00 +5°C° 0 mm 0 mps 701 mmHg 69%
    09:00 +6°C° 0 mm 0 mps 701 mmHg 64%
    10:00 +7°C° 0 mm 0 mps 701 mmHg 63%
    11:00 +9°C° 0 mm 1 mps 701 mmHg 61%
    12:00 +10°C° 0 mm 1 mps 700 mmHg 60%
    13:00 +10°C° 0 mm 1 mps 700 mmHg 63%
    14:00 +10°C° 0 mm 1 mps 700 mmHg 66%
    15:00 +10°C° 0 mm 1 mps 700 mmHg 68%
    16:00 +8°C° 0 mm 1 mps 700 mmHg 73%
    17:00 +7°C° 0 mm 1 mps 700 mmHg 78%
    18:00 +5°C° 0 mm 0 mps 700 mmHg 82%
    19:00 +6°C° 0 mm 1 mps 700 mmHg 79%
    20:00 +6°C° 0 mm 1 mps 700 mmHg 76%
    21:00 +6°C° 0 mm 1 mps 700 mmHg 73%
    22:00 +6°C° 0 mm 1 mps 700 mmHg 70%
    23:00 +6°C° 0 mm 1 mps 700 mmHg 66%

    19 December, Thursday

    Time Temperature Precipitation Wind Pressure Humidity
    00:00 +6°C° 0 mm 1 mps 700 mmHg 63%
    01:00 +6°C° 0 mm 1 mps 700 mmHg 60%
    02:00 +6°C° 0 mm 1 mps 700 mmHg 57%
    03:00 +6°C° 0 mm 1 mps 700 mmHg 54%
    04:00 +6°C° 0 mm 1 mps 700 mmHg 52%
    05:00 +6°C° 0 mm 1 mps 700 mmHg 49%
    06:00 +6°C° 0 mm 1 mps 700 mmHg 47%
    07:00 +7°C° 0 mm 1 mps 700 mmHg 45%
    08:00 +8°C° 0 mm 1 mps 700 mmHg 42%
    09:00 +9°C° 0 mm 1 mps 700 mmHg 40%
    10:00 +10°C° 0 mm 1 mps 700 mmHg 38%
    11:00 +11°C° 0 mm 1 mps 700 mmHg 36%
    12:00 +12°C° 0 mm 1 mps 700 mmHg 34%
    13:00 +12°C° 0 mm 1 mps 699 mmHg 38%
    14:00 +11°C° 0 mm 0 mps 699 mmHg 41%
    15:00 +11°C° 0 mm 0 mps 698 mmHg 44%
    16:00 +11°C° 0 mm 1 mps 698 mmHg 45%
    17:00 +9°C° 0 mm 1 mps 698 mmHg 46%
    18:00 +8°C° 0 mm 1 mps 698 mmHg 47%
    19:00 +8°C° 0 mm 1 mps 698 mmHg 43%
    20:00 +7°C° 0 mm 2 mps 698 mmHg 40%
    21:00 +7°C° 0 mm 2 mps 698 mmHg 37%
    22:00 +7°C° 0 mm 2 mps 697 mmHg 35%
    23:00 +7°C° 0 mm 2 mps 697 mmHg 34%
    Show more